| time (UTC) | temp C | wind direction | speed KPH | gust KPH | rain 1hr cm | rain 24hr cm | rain mn cm | humidity % | barometer mb |
| 20260905034504 | 12 | 283 | 0.0 | 0.0 | 0.00 | 0.99 | 0.99 | 96 | 1014.5 |
| 20260905033505 | 12 | 305 | 0.0 | 0.0 | 0.00 | 0.99 | 0.99 | 96 | 1014.5 |
| 20260905033005 | 12 | 260 | 0.0 | 0.0 | 0.00 | 0.99 | 0.99 | 96 | 1014.5 |
| 20260905032504 | 12 | 305 | 0.0 | 0.0 | 0.00 | 0.99 | 0.99 | 96 | 1014.5 |
| 20260905031504 | 12 | 305 | 0.0 | 0.0 | 0.00 | 0.99 | 0.99 | 95 | 1014.5 |
| 20260905031004 | 12 | 305 | 0.0 | 0.0 | 0.00 | 0.99 | 0.99 | 95 | 1013.5 |
| 20260905030504 | 12 | 305 | 0.0 | 0.0 | 0.00 | 0.99 | 0.99 | 95 | 1013.5 |
| 20260905030005 | 12 | 305 | 0.0 | 0.0 | 0.00 | 0.99 | 0.99 | 95 | 1013.5 |
| 20260905025005 | 12 | 305 | 0.0 | 0.0 | 0.00 | 0.99 | 0.99 | 95 | 1013.5 |
| 20260905023505 | 13 | 305 | 0.0 | 0.0 | 0.00 | 0.99 | 0.99 | 94 | 1013.5 |
| 20260905022504 | 13 | 305 | 0.0 | 0.0 | 0.00 | 0.99 | 0.99 | 94 | 1013.5 |
| 20260905022006 | 13 | 305 | 0.0 | 0.0 | 0.00 | 0.99 | 0.99 | 94 | 1013.5 |
| 20260905021506 | 13 | 305 | 0.0 | 0.0 | 0.00 | 0.99 | 0.99 | 94 | 1013.5 |
| 20260905021004 | 13 | 305 | 0.0 | 0.0 | 0.00 | 0.99 | 0.99 | 94 | 1013.5 |
| 20260905020504 | 13 | 192 | 0.0 | 0.0 | 0.00 | 0.99 | 0.99 | 94 | 1013.5 |
| 20260905020005 | 13 | 205 | 0.0 | 0.0 | 0.00 | 0.99 | 0.99 | 94 | 1013.5 |
| 20260905015504 | 13 | 58 | 0.0 | 0.0 | 0.00 | 0.99 | 0.99 | 94 | 1013.5 |
| 20260905015004 | 13 | 58 | 0.0 | 0.0 | 0.00 | 0.99 | 0.99 | 94 | 1013.5 |
| 20260905014505 | 13 | 58 | 0.0 | 0.0 | 0.00 | 0.99 | 0.99 | 94 | 1013.5 |
| 20260905014005 | 13 | 70 | 0.0 | 0.0 | 0.00 | 0.99 | 0.99 | 94 | 1013.5 |
| 20260905013504 | 13 | 58 | 0.0 | 0.0 | 0.00 | 0.99 | 0.99 | 94 | 1013.5 |
| 20260905013005 | 13 | 58 | 0.0 | 0.0 | 0.00 | 0.99 | 0.99 | 94 | 1013.5 |
| 20260905012504 | 13 | 170 | 0.0 | 0.0 | 0.00 | 0.99 | 0.99 | 93 | 1012.5 |
| 20260905011504 | 14 | 170 | 0.0 | 0.0 | 0.00 | 0.99 | 0.99 | 93 | 1012.5 |
| 20260905011004 | 14 | 170 | 0.0 | 0.0 | 0.00 | 0.99 | 0.99 | 93 | 1012.5 |
| 20260905010504 | 14 | 170 | 0.0 | 0.0 | 0.00 | 0.99 | 0.99 | 93 | 1012.5 |
| 20260905010005 | 14 | 170 | 0.0 | 0.0 | 0.00 | 0.99 | 0.99 | 93 | 1012.5 |
| 20260905005504 | 14 | 80 | 0.0 | 0.0 | 0.00 | 0.99 | 0.99 | 93 | 1012.5 |
| 20260905005004 | 14 | 101 | 0.0 | 0.0 | 0.00 | 0.99 | 0.99 | 93 | 1012.5 |
| 20260905004504 | 14 | 156 | 0.0 | 0.0 | 0.00 | 0.99 | 0.99 | 94 | 1012.5 |
| 20260905004004 | 14 | 148 | 0.0 | 0.0 | 0.00 | 0.99 | 0.99 | 94 | 1012.5 |
| 20260905003004 | 14 | 170 | 0.0 | 0.0 | 0.00 | 0.99 | 0.99 | 93 | 1012.5 |
| 20260905002504 | 14 | 170 | 0.0 | 0.0 | 0.00 | 0.99 | 0.99 | 94 | 1012.5 |
| 20260905002004 | 15 | 142 | 0.0 | 0.0 | 0.00 | 0.99 | 0.99 | 94 | 1012.5 |
| 20260905001505 | 15 | 140 | 0.0 | 0.0 | 0.00 | 0.99 | 0.99 | 94 | 1012.5 |
| 20260905001005 | 15 | 178 | 0.0 | 0.0 | 0.00 | 0.99 | 0.99 | 93 | 1012.5 |
| 20260905000503 | 14 | 148 | 0.0 | 0.0 | 0.00 | 0.99 | 0.99 | 93 | 1012.5 |
| 20260905000005 | 14 | 305 | 0.0 | 0.0 | 0.00 | 0.99 | 0.99 | 93 | 1012.5 |
| 20260904235504 | 14 | 305 | 0.0 | 0.0 | 0.00 | 0.99 | 0.99 | 93 | 1012.5 |
| 20260904235004 | 14 | 305 | 0.0 | 3.2 | 0.00 | 0.99 | 0.99 | 94 | 1012.5 |
| 20260904234004 | 14 | 125 | 0.0 | 0.0 | 0.00 | 0.99 | 0.99 | 93 | 1012.5 |
| 20260904233503 | 14 | 125 | 0.0 | 0.0 | 0.00 | 0.99 | 0.99 | 93 | 1012.5 |
| 20260904233004 | 14 | 92 | 0.0 | 0.0 | 0.15 | 0.99 | 0.99 | 93 | 1012.5 |
| 20260904232004 | 13 | 80 | 0.0 | 0.0 | 0.15 | 0.99 | 0.99 | 93 | 1012.5 |
| 20260904231504 | 13 | 125 | 0.0 | 0.0 | 0.15 | 1.12 | 0.99 | 93 | 1012.5 |
| 20260904231004 | 13 | 102 | 0.0 | 0.0 | 0.15 | 1.12 | 0.99 | 93 | 1012.5 |
| 20260904230504 | 13 | 102 | 0.0 | 0.0 | 0.15 | 1.12 | 0.99 | 92 | 1012.5 |
| 20260904230004 | 13 | 148 | 0.0 | 0.0 | 0.15 | 1.12 | 0.99 | 92 | 1012.5 |
| 20260904225504 | 13 | 92 | 0.0 | 0.0 | 0.15 | 1.12 | 0.99 | 91 | 1012.5 |
| 20260904224504 | 13 | 125 | 0.0 | 0.0 | 0.15 | 1.12 | 0.99 | 90 | 1012.5 |
| 20260904224004 | 12 | 118 | 0.0 | 0.0 | 0.25 | 1.12 | 0.99 | 90 | 1012.5 |
| 20260904223504 | 12 | 80 | 0.0 | 3.2 | 0.25 | 1.12 | 0.99 | 90 | 1012.5 |
| 20260904223004 | 12 | 166 | 0.0 | 3.2 | 0.48 | 0.97 | 0.86 | 90 | 1012.5 |
| 20260904222004 | 13 | 282 | 0.0 | 0.0 | 0.71 | 0.97 | 0.86 | 88 | 1012.5 |
| 20260904221505 | 13 | 282 | 0.0 | 0.0 | 0.71 | 0.97 | 0.86 | 86 | 1012.5 |
| 20260904221003 | 13 | 282 | 0.0 | 0.0 | 0.71 | 0.97 | 0.86 | 85 | 1012.5 |
| 20260904220504 | 13 | 282 | 0.0 | 0.0 | 0.71 | 0.97 | 0.86 | 84 | 1012.5 |
| 20260904220004 | 13 | 282 | 0.0 | 0.0 | 0.71 | 0.97 | 0.86 | 83 | 1012.5 |
| 20260904215504 | 13 | 282 | 0.0 | 0.0 | 0.71 | 0.97 | 0.86 | 82 | 1012.5 |
| 20260904215004 | 13 | 282 | 0.0 | 0.0 | 0.71 | 0.97 | 0.86 | 81 | 1012.5 |
| 20260904214004 | 14 | 35 | 0.0 | 11.3 | 0.58 | 0.86 | 0.74 | 79 | 1011.5 |
| 20260904213504 | 15 | 302 | 1.6 | 16.1 | 0.58 | 0.86 | 0.74 | 77 | 1011.5 |
| 20260904213004 | 15 | 250 | 4.8 | 32.2 | 0.23 | 0.48 | 0.38 | 77 | 1011.5 |
| 20260904212504 | 16 | 244 | 8.0 | 32.2 | 0.10 | 0.36 | 0.25 | 74 | 1012.5 |
| 20260904212004 | 17 | 177 | 3.2 | 32.2 | 0.00 | 0.25 | 0.15 | 67 | 1012.5 |
| 20260904211504 | 18 | 241 | 0.0 | 0.0 | 0.00 | 0.25 | 0.15 | 68 | 1012.5 |
| 20260904211004 | 18 | 215 | 0.0 | 8.0 | 0.00 | 0.25 | 0.15 | 68 | 1011.5 |
| 20260904210503 | 18 | 180 | 1.6 | 8.0 | 0.00 | 0.25 | 0.15 | 68 | 1011.5 |
| 20260904210004 | 18 | 192 | 0.0 | 9.7 | 0.00 | 0.25 | 0.15 | 69 | 1011.5 |
| 20260904205504 | 18 | 305 | 0.0 | 9.7 | 0.00 | 0.25 | 0.15 | 70 | 1011.5 |
| 20260904205004 | 18 | 174 | 1.6 | 9.7 | 0.00 | 0.25 | 0.15 | 67 | 1011.5 |
| 20260904204504 | 17 | 215 | 0.0 | 0.0 | 0.00 | 0.25 | 0.15 | 69 | 1011.5 |
| 20260904204004 | 17 | 341 | 0.0 | 0.0 | 0.00 | 0.25 | 0.15 | 71 | 1011.5 |
| 20260904203504 | 17 | 305 | 0.0 | 0.0 | 0.00 | 0.25 | 0.15 | 70 | 1011.5 |
| 20260904202504 | 17 | 35 | 0.0 | 0.0 | 0.00 | 0.25 | 0.15 | 71 | 1011.5 |
| 20260904202004 | 17 | 35 | 0.0 | 0.0 | 0.00 | 0.25 | 0.15 | 71 | 1011.5 |
| 20260904201507 | 17 | 86 | 0.0 | 14.5 | 0.00 | 0.25 | 0.15 | 72 | 1011.5 |
| 20260904201007 | 17 | 305 | 1.6 | 14.5 | 0.00 | 0.25 | 0.15 | 72 | 1011.5 |
| 20260904200506 | 17 | 274 | 1.6 | 14.5 | 0.00 | 0.25 | 0.15 | 73 | 1011.5 |
| 20260904200006 | 17 | 58 | 0.0 | 3.2 | 0.00 | 0.25 | 0.15 | 71 | 1011.5 |
| 20260904195507 | 17 | 220 | 0.0 | 0.0 | 0.00 | 0.25 | 0.15 | 70 | 1011.5 |
| 20260904195007 | 17 | 300 | 0.0 | 8.0 | 0.00 | 0.25 | 0.15 | 71 | 1011.5 |
| 20260904194507 | 17 | 136 | 0.0 | 8.0 | 0.00 | 0.25 | 0.15 | 71 | 1011.5 |
| 20260904194006 | 17 | 45 | 1.6 | 8.0 | 0.00 | 0.25 | 0.15 | 73 | 1012.5 |
| 20260904192506 | 17 | 35 | 0.0 | 9.7 | 0.00 | 0.25 | 0.15 | 74 | 1012.5 |
| 20260904191506 | 17 | 42 | 3.2 | 9.7 | 0.00 | 0.25 | 0.15 | 75 | 1012.5 |
| 20260904191006 | 17 | 35 | 3.2 | 0.0 | 0.00 | 0.25 | 0.15 | 76 | 1012.5 |
| 20260904190507 | 17 | 35 | 3.2 | 9.7 | 0.00 | 0.25 | 0.15 | 77 | 1012.5 |
| 20260904190006 | 17 | 35 | 3.2 | 9.7 | 0.00 | 0.25 | 0.15 | 78 | 1012.5 |
| 20260904185507 | 17 | 110 | 6.4 | 9.7 | 0.00 | 0.25 | 0.15 | 78 | 1012.5 |
| 20260904185007 | 17 | 187 | 0.0 | 9.7 | 0.00 | 0.25 | 0.15 | 79 | 1012.5 |
| 20260904184507 | 16 | 170 | 0.0 | 12.9 | 0.00 | 0.25 | 0.15 | 79 | 1012.5 |
| 20260904184006 | 16 | 107 | 3.2 | 12.9 | 0.00 | 0.25 | 0.15 | 80 | 1012.5 |
| 20260904183507 | 16 | 38 | 3.2 | 12.9 | 0.00 | 0.25 | 0.15 | 81 | 1012.5 |
| 20260904183006 | 16 | 316 | 8.0 | 12.9 | 0.00 | 0.38 | 0.15 | 82 | 1012.5 |
| 20260904182507 | 16 | 48 | 3.2 | 11.3 | 0.00 | 0.51 | 0.15 | 82 | 1011.5 |
| 20260904182006 | 16 | 80 | 4.8 | 11.3 | 0.00 | 0.51 | 0.15 | 82 | 1011.5 |
| 20260904181506 | 16 | 80 | 0.0 | 4.8 | 0.00 | 0.51 | 0.15 | 83 | 1011.5 |
| 20260904181007 | 16 | 68 | 3.2 | 8.0 | 0.00 | 0.51 | 0.15 | 84 | 1011.5 |
| 20260904180507 | 16 | 80 | 1.6 | 9.7 | 0.00 | 0.51 | 0.15 | 84 | 1011.5 |
| 20260904180007 | 16 | 126 | 4.8 | 11.3 | 0.00 | 0.51 | 0.15 | 84 | 1011.5 |
| 20260904175506 | 16 | 127 | 8.0 | 11.3 | 0.00 | 0.51 | 0.15 | 89 | 1011.5 |
| 20260904175007 | 16 | 46 | 4.8 | 11.3 | 0.00 | 0.51 | 0.15 | 89 | 1011.5 |
| 20260904174006 | 16 | 96 | 4.8 | 9.7 | 0.00 | 0.51 | 0.15 | 91 | 1011.5 |
| 20260904173506 | 15 | 115 | 8.0 | 9.7 | 0.00 | 0.51 | 0.15 | 92 | 1011.5 |
| 20260904173006 | 15 | 148 | 0.0 | 11.3 | 0.00 | 0.51 | 0.15 | 93 | 1011.5 |
| 20260904172506 | 15 | 64 | 4.8 | 12.9 | 0.00 | 0.51 | 0.15 | 93 | 1011.5 |
| 20260904172006 | 15 | 119 | 0.0 | 12.9 | 0.00 | 0.51 | 0.15 | 93 | 1011.5 |
| 20260904171007 | 15 | 45 | 3.2 | 9.7 | 0.00 | 0.51 | 0.15 | 95 | 1011.5 |
| 20260904170506 | 14 | 65 | 1.6 | 9.7 | 0.00 | 0.51 | 0.15 | 95 | 1011.5 |
| 20260904165007 | 14 | 110 | 3.2 | 11.3 | 0.00 | 0.51 | 0.15 | 96 | 1010.5 |
| 20260904164506 | 13 | 35 | 4.8 | 11.3 | 0.00 | 0.51 | 0.15 | 96 | 1010.5 |
| 20260904164006 | 13 | 109 | 3.2 | 4.8 | 0.00 | 0.51 | 0.15 | 96 | 1011.5 |
| 20260904163506 | 13 | 117 | 0.0 | 3.2 | 0.00 | 0.51 | 0.15 | 96 | 1011.5 |
| 20260904163006 | 13 | 49 | 0.0 | 8.0 | 0.00 | 0.51 | 0.15 | 96 | 1011.5 |
| 20260904162506 | 13 | 80 | 0.0 | 8.0 | 0.00 | 0.51 | 0.15 | 96 | 1010.5 |
| 20260904161506 | 12 | 80 | 0.0 | 4.8 | 0.00 | 0.51 | 0.15 | 97 | 1010.5 |
| 20260904161007 | 12 | 126 | 1.6 | 4.8 | 0.00 | 0.51 | 0.15 | 97 | 1010.5 |
| 20260904160506 | 12 | 35 | 0.0 | 3.2 | 0.00 | 0.51 | 0.15 | 97 | 1010.5 |
| 20260904160006 | 12 | 86 | 0.0 | 0.0 | 0.00 | 0.51 | 0.15 | 97 | 1010.5 |
| 20260904155507 | 12 | 58 | 0.0 | 8.0 | 0.00 | 0.51 | 0.15 | 97 | 1010.5 |
| 20260904155006 | 12 | 71 | 3.2 | 8.0 | 0.00 | 0.51 | 0.15 | 97 | 1010.5 |
| 20260904154507 | 12 | 35 | 0.0 | 3.2 | 0.00 | 0.51 | 0.15 | 97 | 1010.5 |
| 20260904154006 | 11 | 58 | 0.0 | 8.0 | 0.00 | 0.51 | 0.15 | 97 | 1010.5 |
| 20260904153507 | 11 | 67 | 1.6 | 8.0 | 0.00 | 0.51 | 0.15 | 97 | 1010.5 |
| 20260904152506 | 11 | 113 | 1.6 | 9.7 | 0.00 | 0.51 | 0.15 | 97 | 1010.5 |
| 20260904152006 | 11 | 102 | 1.6 | 9.7 | 0.00 | 0.51 | 0.15 | 97 | 1010.5 |
| 20260904151506 | 11 | 164 | 6.4 | 9.7 | 0.00 | 0.51 | 0.15 | 97 | 1010.5 |
| 20260904151006 | 11 | 205 | 0.0 | 8.0 | 0.00 | 0.51 | 0.15 | 97 | 1010.5 |
| 20260904150506 | 11 | 148 | 0.0 | 0.0 | 0.00 | 0.51 | 0.15 | 97 | 1010.5 |
| 20260904145006 | 11 | 35 | 0.0 | 0.0 | 0.00 | 0.51 | 0.15 | 97 | 1010.5 |
| 20260904144006 | 11 | 35 | 0.0 | 3.2 | 0.00 | 0.51 | 0.15 | 97 | 1010.5 |
| 20260904143506 | 11 | 35 | 0.0 | 3.2 | 0.00 | 0.51 | 0.15 | 97 | 1010.5 |
| 20260904143006 | 11 | 35 | 0.0 | 0.0 | 0.00 | 0.51 | 0.15 | 97 | 1010.5 |
| 20260904142005 | 11 | 35 | 0.0 | 4.8 | 0.00 | 0.61 | 0.15 | 96 | 1010.5 |
| 20260904141006 | 11 | 35 | 0.0 | 0.0 | 0.00 | 0.61 | 0.15 | 97 | 1011.5 |
| 20260904140505 | 11 | 35 | 0.0 | 0.0 | 0.00 | 0.61 | 0.15 | 96 | 1011.5 |
| 20260904140006 | 11 | 35 | 0.0 | 0.0 | 0.00 | 0.61 | 0.15 | 96 | 1011.5 |
| 20260904134506 | 11 | 35 | 0.0 | 0.0 | 0.00 | 0.61 | 0.15 | 96 | 1010.5 |
| 20260904134005 | 11 | 58 | 0.0 | 0.0 | 0.00 | 0.61 | 0.15 | 96 | 1010.5 |
| 20260904133505 | 11 | 35 | 0.0 | 0.0 | 0.00 | 0.61 | 0.15 | 96 | 1010.5 |
| 20260904133006 | 11 | 35 | 0.0 | 0.0 | 0.00 | 0.61 | 0.15 | 96 | 1010.5 |
| 20260904132506 | 11 | 35 | 0.0 | 8.0 | 0.00 | 0.61 | 0.15 | 96 | 1010.5 |
| 20260904132005 | 11 | 35 | 1.6 | 8.0 | 0.00 | 0.61 | 0.15 | 96 | 1010.5 |
| 20260904131506 | 11 | 326 | 0.0 | 4.8 | 0.00 | 0.61 | 0.15 | 96 | 1010.5 |
| 20260904131006 | 11 | 51 | 1.6 | 8.0 | 0.00 | 0.61 | 0.15 | 96 | 1010.5 |
| 20260904130506 | 11 | 147 | 1.6 | 8.0 | 0.00 | 0.61 | 0.15 | 96 | 1010.5 |
| 20260904130005 | 11 | 125 | 1.6 | 4.8 | 0.00 | 0.61 | 0.15 | 95 | 1010.5 |
| 20260904125506 | 11 | 148 | 3.2 | 4.8 | 0.00 | 0.61 | 0.15 | 95 | 1009.5 |
| 20260904125005 | 11 | 282 | 0.0 | 0.0 | 0.00 | 0.61 | 0.15 | 95 | 1009.5 |
| 20260904124506 | 11 | 282 | 0.0 | 0.0 | 0.00 | 0.61 | 0.15 | 95 | 1009.5 |
| 20260904124005 | 11 | 282 | 0.0 | 0.0 | 0.00 | 0.61 | 0.15 | 95 | 1009.5 |
| 20260904123506 | 11 | 282 | 0.0 | 0.0 | 0.00 | 0.61 | 0.15 | 94 | 1009.5 |
| 20260904122505 | 11 | 282 | 0.0 | 0.0 | 0.00 | 0.61 | 0.15 | 94 | 1009.5 |
| 20260904122006 | 11 | 282 | 0.0 | 0.0 | 0.00 | 0.61 | 0.15 | 93 | 1009.5 |
| 20260904121506 | 11 | 282 | 0.0 | 0.0 | 0.00 | 0.61 | 0.15 | 93 | 1009.5 |
| 20260904121006 | 11 | 282 | 0.0 | 3.2 | 0.00 | 0.61 | 0.15 | 93 | 1009.5 |
| 20260904120506 | 11 | 282 | 0.0 | 8.0 | 0.00 | 0.61 | 0.15 | 93 | 1009.5 |
| 20260904120006 | 11 | 305 | 3.2 | 8.0 | 0.00 | 0.61 | 0.15 | 93 | 1009.5 |
| 20260904115506 | 11 | 137 | 1.6 | 8.0 | 0.00 | 0.61 | 0.15 | 93 | 1009.5 |
| 20260904114005 | 11 | 42 | 0.0 | 8.0 | 0.15 | 0.61 | 0.15 | 92 | 1009.5 |
| 20260904113505 | 11 | 192 | 0.0 | 9.7 | 0.15 | 0.61 | 0.15 | 92 | 1009.5 |
| 20260904113006 | 11 | 153 | 0.0 | 9.7 | 0.15 | 0.61 | 0.15 | 92 | 1009.5 |
| 20260904112005 | 11 | 305 | 0.0 | 3.2 | 0.15 | 0.61 | 0.15 | 91 | 1009.5 |
| 20260904111506 | 11 | 305 | 0.0 | 3.2 | 0.15 | 0.61 | 0.15 | 91 | 1009.5 |
| 20260904111006 | 11 | 305 | 1.6 | 9.7 | 0.15 | 0.61 | 0.15 | 91 | 1009.5 |
| 20260904110505 | 11 | 311 | 1.6 | 9.7 | 0.15 | 0.61 | 0.15 | 91 | 1009.5 |
| 20260904110005 | 11 | 100 | 1.6 | 11.3 | 0.15 | 0.61 | 0.15 | 91 | 1009.5 |
| 20260904105506 | 11 | 131 | 1.6 | 16.1 | 0.15 | 0.61 | 0.15 | 91 | 1009.5 |
| 20260904105006 | 11 | 113 | 4.8 | 16.1 | 0.15 | 0.61 | 0.15 | 91 | 1009.5 |
| 20260904104006 | 11 | 305 | 0.0 | 0.0 | 0.00 | 0.48 | 0.00 | 91 | 1009.5 |
| 20260904103506 | 11 | 305 | 0.0 | 0.0 | 0.00 | 0.48 | 0.00 | 91 | 1009.5 |
| 20260904103005 | 11 | 305 | 0.0 | 0.0 | 0.00 | 0.48 | 0.00 | 91 | 1009.5 |
| 20260904102505 | 11 | 305 | 0.0 | 0.0 | 0.00 | 0.48 | 0.00 | 91 | 1009.5 |
| 20260904102006 | 11 | 305 | 0.0 | 0.0 | 0.00 | 0.48 | 0.00 | 91 | 1009.5 |
| 20260904101505 | 11 | 305 | 0.0 | 0.0 | 0.00 | 0.48 | 0.00 | 91 | 1009.5 |
| 20260904101005 | 11 | 305 | 0.0 | 0.0 | 0.00 | 0.48 | 0.00 | 91 | 1009.5 |
| 20260904100505 | 11 | 305 | 0.0 | 0.0 | 0.00 | 0.48 | 0.00 | 91 | 1009.5 |
| 20260904100005 | 11 | 27 | 0.0 | 0.0 | 0.00 | 0.48 | 0.00 | 91 | 1009.5 |
| 20260904095505 | 11 | 215 | 0.0 | 0.0 | 0.00 | 0.48 | 0.00 | 91 | 1008.5 |
| 20260904095006 | 11 | 35 | 0.0 | 0.0 | 0.00 | 0.48 | 0.00 | 92 | 1008.5 |
| 20260904094506 | 11 | 35 | 0.0 | 0.0 | 0.00 | 0.48 | 0.00 | 92 | 1008.5 |
| 20260904094005 | 12 | 35 | 0.0 | 0.0 | 0.00 | 0.48 | 0.00 | 91 | 1008.5 |
| 20260904093506 | 12 | 35 | 0.0 | 3.2 | 0.00 | 0.48 | 0.00 | 91 | 1008.5 |
| 20260904093005 | 12 | 35 | 0.0 | 3.2 | 0.00 | 0.48 | 0.00 | 91 | 1008.5 |
| 20260904092005 | 12 | 35 | 0.0 | 4.8 | 0.00 | 0.48 | 0.00 | 92 | 1008.5 |
| 20260904091505 | 12 | 35 | 1.6 | 4.8 | 0.00 | 0.48 | 0.00 | 92 | 1008.5 |
| 20260904091005 | 12 | 282 | 0.0 | 3.2 | 0.00 | 0.48 | 0.00 | 92 | 1008.5 |
| 20260904090505 | 11 | 282 | 0.0 | 8.0 | 0.00 | 0.48 | 0.00 | 93 | 1008.5 |
| 20260904090006 | 11 | 288 | 0.0 | 8.0 | 0.00 | 0.48 | 0.00 | 93 | 1008.5 |
| 20260904085005 | 11 | 305 | 0.0 | 0.0 | 0.00 | 0.48 | 0.00 | 93 | 1008.5 |
| 20260904084505 | 11 | 305 | 0.0 | 0.0 | 0.00 | 0.48 | 0.00 | 93 | 1008.5 |
| 20260904084005 | 11 | 305 | 0.0 | 0.0 | 0.00 | 0.48 | 0.00 | 93 | 1009.5 |
| 20260904083505 | 12 | 305 | 0.0 | 0.0 | 0.00 | 0.48 | 0.00 | 92 | 1009.5 |
| 20260904083005 | 12 | 305 | 0.0 | 0.0 | 0.00 | 0.48 | 0.00 | 92 | 1009.5 |
| 20260904082005 | 12 | 102 | 0.0 | 0.0 | 0.00 | 0.48 | 0.00 | 92 | 1008.5 |
| 20260904081005 | 12 | 63 | 0.0 | 3.2 | 0.00 | 0.48 | 0.00 | 93 | 1009.5 |
| 20260904080505 | 12 | 176 | 0.0 | 0.0 | 0.00 | 0.48 | 0.00 | 93 | 1009.5 |
| 20260904080005 | 12 | 35 | 0.0 | 0.0 | 0.00 | 0.48 | 0.00 | 93 | 1009.5 |
| 20260904075505 | 12 | 35 | 0.0 | 8.0 | 0.00 | 0.48 | 0.00 | 93 | 1008.5 |
| 20260904074505 | 12 | 99 | 4.8 | 9.7 | 0.00 | 0.58 | 0.00 | 94 | 1008.5 |
| 20260904074005 | 12 | 102 | 0.0 | 3.2 | 0.00 | 0.58 | 0.00 | 94 | 1008.5 |
| 20260904073005 | 12 | 68 | 0.0 | 0.0 | 0.00 | 0.58 | 0.00 | 94 | 1008.5 |
| 20260904072006 | 12 | 91 | 0.0 | 0.0 | 0.00 | 0.58 | 0.00 | 94 | 1008.5 |
| 20260904071505 | 12 | 84 | 0.0 | 0.0 | 0.00 | 0.58 | 0.00 | 94 | 1008.5 |
| 20260904070505 | 12 | 102 | 0.0 | 0.0 | 0.00 | 0.58 | 0.00 | 94 | 1008.5 |
| 20260904070006 | 12 | 102 | 0.0 | 0.0 | 0.00 | 0.58 | 0.00 | 94 | 1008.5 |
| 20260904065505 | 12 | 102 | 0.0 | 0.0 | 0.00 | 0.58 | 0.58 | 93 | 1008.5 |
| 20260904065005 | 12 | 102 | 0.0 | 0.0 | 0.00 | 0.58 | 0.58 | 93 | 1008.5 |
| 20260904064505 | 12 | 102 | 0.0 | 0.0 | 0.00 | 0.58 | 0.58 | 93 | 1008.5 |
| 20260904064005 | 12 | 102 | 0.0 | 0.0 | 0.00 | 0.58 | 0.58 | 93 | 1009.5 |
| 20260904063505 | 12 | 102 | 0.0 | 0.0 | 0.00 | 0.58 | 0.58 | 93 | 1009.5 |
| 20260904062005 | 12 | 102 | 0.0 | 0.0 | 0.00 | 0.58 | 0.58 | 92 | 1008.5 |
| 20260904061504 | 12 | 102 | 0.0 | 0.0 | 0.00 | 0.58 | 0.58 | 92 | 1008.5 |
| 20260904061004 | 12 | 102 | 0.0 | 0.0 | 0.00 | 0.58 | 0.58 | 92 | 1009.5 |
| 20260904055504 | 12 | 102 | 0.0 | 0.0 | 0.00 | 0.58 | 0.58 | 92 | 1009.5 |
| 20260904054505 | 12 | 109 | 0.0 | 0.0 | 0.00 | 0.58 | 0.58 | 92 | 1009.5 |
| 20260904054005 | 12 | 148 | 0.0 | 0.0 | 0.00 | 0.58 | 0.58 | 92 | 1009.5 |
| 20260904053505 | 12 | 148 | 0.0 | 0.0 | 0.00 | 0.58 | 0.58 | 92 | 1009.5 |
| 20260904053005 | 12 | 96 | 0.0 | 0.0 | 0.00 | 0.58 | 0.58 | 91 | 1009.5 |
| 20260904052504 | 12 | 129 | 0.0 | 0.0 | 0.00 | 0.58 | 0.58 | 92 | 1009.5 |
| 20260904052005 | 12 | 165 | 0.0 | 0.0 | 0.00 | 0.58 | 0.58 | 92 | 1009.5 |
| 20260904051505 | 12 | 144 | 0.0 | 0.0 | 0.00 | 0.58 | 0.58 | 91 | 1009.5 |
| 20260904051005 | 12 | 164 | 0.0 | 0.0 | 0.00 | 0.58 | 0.58 | 91 | 1009.5 |
| 20260904050505 | 12 | 148 | 0.0 | 3.2 | 0.00 | 0.58 | 0.58 | 92 | 1009.5 |
| 20260904050005 | 12 | 125 | 0.0 | 4.8 | 0.00 | 0.58 | 0.58 | 92 | 1009.5 |
| 20260904045505 | 12 | 139 | 0.0 | 4.8 | 0.00 | 0.58 | 0.58 | 92 | 1009.5 |
| 20260904045005 | 12 | 170 | 0.0 | 4.8 | 0.00 | 0.58 | 0.58 | 92 | 1009.5 |
| 20260904044505 | 12 | 192 | 0.0 | 0.0 | 0.00 | 0.58 | 0.58 | 92 | 1009.5 |
| 20260904044005 | 12 | 192 | 0.0 | 0.0 | 0.00 | 0.58 | 0.58 | 92 | 1009.5 |
| 20260904043504 | 12 | 192 | 0.0 | 3.2 | 0.00 | 0.58 | 0.58 | 92 | 1009.5 |
| 20260904043005 | 12 | 192 | 0.0 | 3.2 | 0.00 | 0.58 | 0.58 | 93 | 1009.5 |
| 20260904042005 | 12 | 282 | 0.0 | 4.8 | 0.00 | 0.58 | 0.58 | 93 | 1009.5 |
| 20260904041005 | 12 | 282 | 0.0 | 0.0 | 0.00 | 0.58 | 0.58 | 93 | 1009.5 |
| 20260904040505 | 12 | 282 | 0.0 | 3.2 | 0.00 | 0.58 | 0.58 | 93 | 1009.5 |
| 20260904040004 | 12 | 282 | 0.0 | 3.2 | 0.00 | 0.58 | 0.58 | 93 | 1009.5 |
| 20260904035505 | 12 | 35 | 0.0 | 3.2 | 0.00 | 0.58 | 0.58 | 93 | 1009.5 |
| 20260904035005 | 12 | 102 | 0.0 | 3.2 | 0.00 | 0.58 | 0.58 | 93 | 1009.5 |